This is the latest recevied weather packets stored in our database for station/object IK2ILW-4. If no packets are shown the sender has not sent any weather packets the latest 10 day(s).
| Time | Temp. | Humidity | Pressure | Rain* | Wind** | Luminosity | Snow |
|---|---|---|---|---|---|---|---|
| 1787681854 | 17.22° C | 88% | 1018.1 hPa | 39.37 mm | - | 0 W/m² | - |
| 1787681569 | 17.22° C | 88% | 1018 hPa | 39.37 mm | - | 0 W/m² | - |
| 1787681265 | 17.22° C | 88% | 1018 hPa | 39.37 mm | - | 0 W/m² | - |
| 1787680975 | 17.22° C | 87% | 1018 hPa | 39.37 mm | - | 7 W/m² | - |
| 1787680667 | 17.78° C | 86% | 1017.6 hPa | 39.37 mm | - | 7 W/m² | - |
| 1787680366 | 17.78° C | 86% | 1017.6 hPa | 39.37 mm | - | 11 W/m² | - |
| 1787680069 | 17.78° C | 86% | 1017.6 hPa | 39.37 mm | - | 12 W/m² | - |
| 1787679770 | 17.78° C | 86% | 1017.6 hPa | 39.37 mm | - | 16 W/m² | - |
| 1787679468 | 17.78° C | 86% | 1017.6 hPa | 39.37 mm | - | 21 W/m² | - |
| 1787679175 | 17.78° C | 87% | 1017.6 hPa | 39.37 mm | - | 28 W/m² | - |
| 1787678870 | 17.78° C | 86% | 1017.4 hPa | 39.37 mm | - | 40 W/m² | - |
| 1787678566 | 17.78° C | 87% | 1017.4 hPa | 39.37 mm | - | 56 W/m² | - |
| 1787678269 | 17.78° C | 86% | 1017.4 hPa | 39.37 mm | - | 32 W/m² | - |
| 1787677961 | 18.33° C | 83% | 1018.1 hPa | 39.37 mm | - | 30 W/m² | - |
| 1787677656 | 19.44° C | 81% | 1018.1 hPa | 39.37 mm | - | 32 W/m² | - |
| 1787677369 | 19.44° C | 81% | 1018.1 hPa | 39.37 mm | - | 97 W/m² | - |
| 1787677054 | 19.44° C | 82% | 1017.9 hPa | 39.37 mm | - | 70 W/m² | - |
| 1787676769 | 19.44° C | 83% | 1017.9 hPa | 39.37 mm | - | 134 W/m² | - |
| 1787676474 | 19.44° C | 82% | 1017.9 hPa | 39.37 mm | - | 88 W/m² | - |
| 1787676169 | 19.44° C | 82% | 1018 hPa | 39.37 mm | - | 176 W/m² | - |
| 1787675859 | 19.44° C | 82% | 1018 hPa | 39.37 mm | - | 185 W/m² | - |
| 1787675570 | 19.44° C | 82% | 1018 hPa | 39.37 mm | - | 213 W/m² | - |
| 1787675272 | 20° C | 80% | 1017.8 hPa | 39.37 mm | - | 229 W/m² | - |
| 1787674965 | 20° C | 81% | 1017.8 hPa | 39.37 mm | - | 162 W/m² | - |
| 1787674655 | 20° C | 81% | 1017.8 hPa | 39.37 mm | - | 253 W/m² | - |
* Rain since midnight (hover to see other rain measurements)
** Current wind speed in m/s (hover to see current wind gust speed)